sat.trackr.live / text

‹ back to catalog

STARLINK-32617

NORAD 62076 · 2024-217V

PAYLOAD ACTIVE UNKNOWN

§ Identity

Operator
Country
US
Launch date
2024-11-24
Launch site
AFWTR
Launch vehicle
Mass (kg)
RCS (m²)

Purposes: comms

External: N2YO · Heavens-Above · Gunter

§ Orbital elements

Epoch: 2026-09-21T20:10:46.246656Z

Period
93.85 min
Inclination
53.1610°
Eccentricity
0.0001207
Mean motion
15.34401722 rev/d
Perigee alt
461.9 km
Apogee alt
463.5 km
Semi-major
6,840.8 km
B*
4.1089e-4
RAAN
347.1252°
Arg perigee
71.6474°
Mean anomaly
288.4660°
Rev number
10,367

§ Raw data

STARLINK-326171 62076U 24217V   26264.84081304  .00013532  00000+0  41089-3 0  99932 62076  53.1610 347.1252 0001207  71.6474 288.4660 15.34401722103672

JSON: /api/v1/satellites/62076 · /tle

For live sub-satellite position, see the globe view (requires WebGL).

§ Visibility from observer

Set your observer location to see the next 7 days of passes ≥ 10°. The values pass through the URL so the page stays shareable.

No JS? Fill the form by hand. The geolocation button needs JavaScript.